{"data":{"norad_id":52998,"intl_designator":"2022-076N","name":"STARLINK-4254","alt_names":[],"object_type":"PAYLOAD","status":"ACTIVE","operator":null,"country":"US","launch_date":"2022-07-07","launch_site_code":"AFETR","launch_vehicle":null,"mission":null,"orbit_class":"UNKNOWN","rcs_meters":null,"size_class":null,"mass_kg":null,"dimensions":null,"purposes":["comms"],"wikipedia_slug":null,"has_3d_model":false,"image_url":null,"decayed_at":null,"tle_current":{"epoch":"2026-09-18T19:10:24.487392Z","epoch_age_seconds":216444,"freshness":"STALE","line1":"1 52998U 22076N   26261.79889453 -.00000415  00000+0 -11630-5 0  9997","line2":"2 52998  53.1594 291.3409 0001182  86.5034 273.6104 15.34384778232211","mean_motion":15.34384778,"eccentricity":0.0001182,"inclination_deg":53.1594,"raan_deg":291.3409,"arg_perigee_deg":86.5034,"mean_anomaly_deg":273.6104,"bstar":-1.163e-6,"rev_number":23221,"period_min":93.848689106325,"perigee_km":461.93989090887,"apogee_km":463.55707623718,"semimajor_km":6840.885483573,"source":"CELESTRAK","updated_at":"2026-09-20T09:00:40.140892Z"}}}